sat.trackr.live / text

‹ back to catalog

STARLINK-3836

NORAD 52577 · 2022-051AT

PAYLOAD ACTIVE UNKNOWN

§ Identity

Operator
Country
US
Launch date
2022-05-13
Launch site
AFWTR
Launch vehicle
Mass (kg)
RCS (m²)

Purposes: comms

External: N2YO · Heavens-Above · Gunter

§ Orbital elements

Epoch: 2026-05-25T00:55:20.643168Z

Period
95.44 min
Inclination
53.2151°
Eccentricity
0.0001637
Mean motion
15.08843255 rev/d
Perigee alt
538.6 km
Apogee alt
540.9 km
Semi-major
6,917.9 km
B*
-3.0523e-5
RAAN
151.3780°
Arg perigee
69.1309°
Mean anomaly
290.9858°
Rev number
22,290

§ Raw data

STARLINK-38361 52577U 22051AT  26145.03843337 -.00000774  00000+0 -30523-4 0  99912 52577  53.2151 151.3780 0001637  69.1309 290.9858 15.08843255222902

JSON: /api/v1/satellites/52577 · /tle

For live sub-satellite position, see the globe view (requires WebGL).

§ Visibility from observer

Set your observer location to see the next 7 days of passes ≥ 10°. The values pass through the URL so the page stays shareable.

No JS? Fill the form by hand. The geolocation button needs JavaScript.